K3TE Weather Reports


Display with metric or nautical units.
time (UTC)temp
F
wind
direction
speed
MPH
gust
MPH
rain 1hr
in
rain 24hr
in
rain mn
in
humidity
%
barometer
mb
20260504184609 68 274 2.0 14.0 0.00 0.00 0.00 39 1011.5
20260504183100 67 147 4.0 15.0 0.00 0.00 0.00 45 1011.6
20260504181606 67 212 4.0 15.0 0.00 0.00 0.00 42 1011.9
20260504180059 67 159 5.0 17.0 0.00 0.00 0.00 39 1012.2
20260504174559 67 220 4.0 15.0 0.00 0.00 0.00 43 1012.2
20260504173105 67 131 2.0 8.0 0.00 0.00 0.00 40 1012.3
20260504171604 66 329 1.0 7.0 0.00 0.00 0.00 45 1012.5
20260504140106 56 0 1.0 8.0 0.00 0.00 0.00 47 1014.4
20260504081611 42 0 0.0 0.0 0.00 0.00 0.00 64 1015.0
20260504070105 43 0 0.0 0.0 0.00 0.00 0.00 63 1014.9
20260504060108 43 0 0.0 0.0 0.00 0.00 0.00 61 1014.8
20260504050108 43 0 0.0 0.0 0.00 0.00 0.00 60 1014.9
20260504044557 43 0 0.0 0.0 0.00 0.00 0.00 60 1014.9
20260504043103 44 0 0.0 0.0 0.00 0.00 0.00 59 1015.0
20260504041603 44 0 0.0 0.0 0.00 0.00 0.00 58 1014.9
20260504040113 44 0 0.0 0.0 0.00 0.00 0.00 57 1014.7
20260504034613 45 0 0.0 0.0 0.00 0.00 0.00 57 1014.4
20260504033103 45 0 0.0 0.0 0.00 0.00 0.00 56 1014.3
20260504031622 45 0 0.0 0.0 0.00 0.00 0.00 56 1014.3
20260504030115 45 0 0.0 0.0 0.00 0.00 0.00 55 1014.2
20260504024603 46 0 0.0 0.0 0.00 0.00 0.00 54 1014.2
20260504023058 46 0 0.0 0.0 0.00 0.00 0.00 54 1014.2
20260504021610 46 0 0.0 0.0 0.00 0.00 0.00 54 1014.3
20260504020055 47 0 0.0 0.0 0.00 0.00 0.00 52 1014.4
20260504014556 47 0 0.0 0.0 0.00 0.00 0.00 51 1014.2
20260504013100 48 0 0.0 0.0 0.00 0.00 0.00 49 1014.3
20260504011558 48 0 0.0 0.0 0.00 0.00 0.00 49 1014.1
20260504010100 49 0 0.0 0.0 0.00 0.00 0.00 48 1014.1
20260504004601 50 0 0.0 0.0 0.00 0.00 0.00 47 1014.0
20260504003058 50 0 0.0 0.0 0.00 0.00 0.00 46 1013.6
20260504001558 51 0 0.0 0.0 0.00 0.00 0.00 44 1013.4
20260504000138 52 0 0.0 3.0 0.00 0.00 0.00 43 1013.3
20260503234604 53 0 0.0 3.0 0.00 0.00 0.00 43 1013.3
20260503233058 54 0 1.0 4.0 0.00 0.00 0.00 40 1013.2
20260503231559 54 0 0.0 2.0 0.00 0.00 0.00 44 1013.0
20260503230100 54 0 1.0 3.0 0.00 0.00 0.00 41 1012.9
20260503224601 55 185 2.0 6.0 0.00 0.00 0.00 38 1013.0
20260503223058 55 264 1.0 6.0 0.00 0.00 0.00 39 1012.9
20260503221603 56 271 1.0 5.0 0.00 0.00 0.00 38 1012.9
20260503214558 56 287 1.0 6.0 0.00 0.00 0.00 36 1012.8
20260503213057 56 258 0.0 8.0 0.00 0.00 0.00 37 1012.7
20260503211604 56 257 1.0 5.0 0.00 0.00 0.00 38 1012.5
20260503210058 56 289 3.0 11.0 0.00 0.00 0.00 35 1012.5
20260503204559 56 279 2.0 8.0 0.00 0.00 0.00 33 1012.5
20260503203110 57 278 4.0 13.0 0.00 0.00 0.00 35 1012.6
20260503201601 57 274 4.0 8.0 0.00 0.00 0.00 32 1012.6
20260503200101 57 278 4.0 10.0 0.00 0.00 0.00 32 1012.8
20260503194608 56 241 1.0 9.0 0.00 0.00 0.00 36 1013.0
20260503193109 55 140 4.0 15.0 0.00 0.00 0.00 38 1013.3
20260503191559 56 242 2.0 19.0 0.00 0.00 0.00 34 1013.4
20260503190059 56 237 3.0 7.0 0.00 0.00 0.00 34 1013.6